• In United Kingdom
  • List of Countries
  • For 7 days
  • Water Temperature
  • Satellite Maps
  • Weather Map
  • Weather Widgets
  • user-avatar
    Login

    Hourly Weather Sarniak

    Today, 23 October, Tuesday

    Time Temperature Precipitation Wind Pressure Humidity
    00:00 +6°C° 0.1 mm 4 mps 743 mmHg 77%
    01:00 +6°C° 0.1 mm 4 mps 743 mmHg 80%
    02:00 +7°C° 0 mm 3 mps 742 mmHg 81%
    03:00 +7°C° 0 mm 3 mps 742 mmHg 84%
    04:00 +5°C° 0 mm 4 mps 742 mmHg 87%
    05:00 +5°C° 0 mm 4 mps 741 mmHg 89%
    06:00 +4°C° 0 mm 4 mps 741 mmHg 90%
    07:00 +4°C° 0 mm 4 mps 741 mmHg 92%
    08:00 +2°C° 0 mm 5 mps 740 mmHg 92%
    09:00 +5°C° 0 mm 5 mps 740 mmHg 83%
    10:00 +5°C° 0 mm 6 mps 739 mmHg 75%
    11:00 +7°C° 0 mm 6 mps 738 mmHg 66%
    12:00 +6°C° 0.2 mm 7 mps 737 mmHg 65%
    13:00 +6°C° 0.2 mm 8 mps 736 mmHg 64%
    14:00 +6°C° 0.2 mm 8 mps 734 mmHg 63%
    15:00 +5°C° 0.9 mm 9 mps 733 mmHg 66%
    16:00 +5°C° 0.9 mm 9 mps 732 mmHg 69%
    17:00 +5°C° 0.9 mm 9 mps 730 mmHg 72%
    18:00 +5°C° 0.7 mm 9 mps 729 mmHg 74%
    19:00 +5°C° 0.7 mm 9 mps 728 mmHg 76%
    20:00 +5°C° 0.7 mm 10 mps 727 mmHg 79%
    21:00 +5°C° 0.8 mm 9 mps 726 mmHg 81%
    22:00 +5°C° 0.8 mm 9 mps 725 mmHg 83%
    23:00 +6°C° 0.8 mm 9 mps 724 mmHg 85%

    Tomorrow, 24 October, Wednesday

    Time Temperature Precipitation Wind Pressure Humidity
    00:00 +6°C° 0.6 mm 8 mps 723 mmHg 84%
    01:00 +6°C° 0.6 mm 8 mps 723 mmHg 82%
    02:00 +6°C° 0.6 mm 8 mps 722 mmHg 81%
    03:00 +5°C° 0.1 mm 8 mps 721 mmHg 80%
    04:00 +4°C° 0.1 mm 8 mps 721 mmHg 80%
    05:00 +4°C° 0.1 mm 8 mps 721 mmHg 79%
    06:00 +4°C° 0.6 mm 8 mps 721 mmHg 79%
    07:00 +2°C° 0.6 mm 8 mps 721 mmHg 80%
    08:00 +2°C° 0.6 mm 8 mps 721 mmHg 80%
    09:00 +4°C° 0.7 mm 8 mps 722 mmHg 76%
    10:00 +3°C° 0.7 mm 9 mps 722 mmHg 71%
    11:00 +3°C° 0.7 mm 9 mps 723 mmHg 67%
    12:00 +3°C° 0.1 mm 10 mps 723 mmHg 63%
    13:00 +3°C° 0.1 mm 10 mps 724 mmHg 59%
    14:00 +3°C° 0.1 mm 11 mps 724 mmHg 55%
    15:00 +3°C° 0.3 mm 11 mps 724 mmHg 58%
    16:00 +3°C° 0.3 mm 11 mps 724 mmHg 61%
    17:00 +2°C° 0.3 mm 11 mps 725 mmHg 64%
    18:00 +2°C° 0.2 mm 12 mps 725 mmHg 66%
    19:00 +2°C° 0.2 mm 12 mps 726 mmHg 67%
    20:00 +2°C° 0.2 mm 12 mps 726 mmHg 69%
    21:00 +2°C° 0.2 mm 12 mps 727 mmHg 70%
    22:00 +2°C° 0.2 mm 11 mps 728 mmHg 71%
    23:00 +3°C° 0.2 mm 11 mps 729 mmHg 72%

    Day after tomorrow, 25 October, Thursday

    Time Temperature Precipitation Wind Pressure Humidity
    00:00 +2°C° 0 mm 10 mps 729 mmHg 71%
    01:00 +2°C° 0 mm 10 mps 730 mmHg 71%
    02:00 +2°C° 0 mm 9 mps 731 mmHg 71%
    03:00 +2°C° 0 mm 9 mps 731 mmHg 72%
    04:00 +1°C° 0 mm 8 mps 731 mmHg 74%
    05:00 +1°C° 0 mm 8 mps 732 mmHg 75%
    06:00 +2°C° 0 mm 7 mps 732 mmHg 75%
    07:00 0°C° 0 mm 7 mps 732 mmHg 75%
    08:00 +1°C° 0 mm 6 mps 733 mmHg 74%
    09:00 +2°C° 0 mm 6 mps 732 mmHg 71%
    10:00 +3°C° 0 mm 6 mps 732 mmHg 68%
    11:00 +4°C° 0 mm 7 mps 732 mmHg 64%
    12:00 +3°C° 0.3 mm 6 mps 731 mmHg 69%
    13:00 +3°C° 0.3 mm 6 mps 730 mmHg 73%
    14:00 +3°C° 0.3 mm 6 mps 729 mmHg 78%
    15:00 +3°C° 0.7 mm 7 mps 729 mmHg 81%
    16:00 +4°C° 0.7 mm 7 mps 728 mmHg 84%
    17:00 +5°C° 0.7 mm 7 mps 727 mmHg 88%
    18:00 +5°C° 0.3 mm 8 mps 727 mmHg 84%
    19:00 +5°C° 0.3 mm 8 mps 727 mmHg 80%
    20:00 +6°C° 0.3 mm 8 mps 727 mmHg 77%
    21:00 +5°C° 0.1 mm 8 mps 728 mmHg 78%
    22:00 +5°C° 0.1 mm 8 mps 729 mmHg 79%
    23:00 +5°C° 0.1 mm 7 mps 729 mmHg 80%

    26 October, Friday

    Time Temperature Precipitation Wind Pressure Humidity
    00:00 +4°C° 0 mm 7 mps 730 mmHg 81%
    01:00 +4°C° 0 mm 7 mps 730 mmHg 83%
    02:00 +3°C° 0 mm 6 mps 731 mmHg 85%
    03:00 +3°C° 0 mm 6 mps 731 mmHg 87%
    04:00 +3°C° 0 mm 5 mps 731 mmHg 88%
    05:00 +2°C° 0 mm 5 mps 732 mmHg 89%
    06:00 +2°C° 0 mm 5 mps 732 mmHg 90%
    07:00 +2°C° 0 mm 5 mps 732 mmHg 90%
    08:00 +2°C° 0 mm 5 mps 733 mmHg 90%
    09:00 +3°C° 0 mm 5 mps 733 mmHg 85%
    10:00 +5°C° 0 mm 5 mps 733 mmHg 81%
    11:00 +6°C° 0 mm 5 mps 733 mmHg 76%
    12:00 +7°C° 0 mm 5 mps 733 mmHg 72%
    13:00 +8°C° 0 mm 5 mps 733 mmHg 67%
    14:00 +9°C° 0 mm 5 mps 733 mmHg 63%
    15:00 +8°C° 0 mm 4 mps 733 mmHg 66%
    16:00 +8°C° 0 mm 4 mps 732 mmHg 70%
    17:00 +8°C° 0 mm 3 mps 732 mmHg 73%
    18:00 +7°C° 0 mm 4 mps 732 mmHg 76%
    19:00 +7°C° 0 mm 4 mps 731 mmHg 78%
    20:00 +7°C° 0 mm 4 mps 731 mmHg 81%
    21:00 +7°C° 0 mm 5 mps 731 mmHg 81%
    22:00 +7°C° 0 mm 5 mps 731 mmHg 81%
    23:00 +8°C° 0 mm 5 mps 730 mmHg 82%

    27 October, Saturday

    Time Temperature Precipitation Wind Pressure Humidity
    00:00 +8°C° 0 mm 6 mps 730 mmHg 81%
    01:00 +8°C° 0 mm 6 mps 730 mmHg 81%
    02:00 +8°C° 0 mm 6 mps 730 mmHg 80%
    03:00 +8°C° 0 mm 6 mps 730 mmHg 80%
    04:00 +8°C° 0 mm 6 mps 730 mmHg 80%
    05:00 +7°C° 0 mm 6 mps 730 mmHg 80%
    06:00 +7°C° 0 mm 6 mps 730 mmHg 78%
    07:00 +7°C° 0 mm 6 mps 730 mmHg 77%
    08:00 +5°C° 0 mm 6 mps 731 mmHg 75%
    09:00 +6°C° 0 mm 7 mps 731 mmHg 68%
    10:00 +6°C° 0 mm 7 mps 732 mmHg 62%
    11:00 +6°C° 0 mm 7 mps 732 mmHg 55%
    12:00 +8°C° 0 mm 7 mps 732 mmHg 55%
    13:00 +8°C° 0 mm 7 mps 733 mmHg 55%
    14:00 +8°C° 0 mm 7 mps 733 mmHg 54%
    15:00 +7°C° 0 mm 6 mps 733 mmHg 56%
    16:00 +7°C° 0 mm 5 mps 733 mmHg 57%
    17:00 +7°C° 0 mm 4 mps 734 mmHg 59%
    18:00 +7°C° 0 mm 3 mps 734 mmHg 61%
    19:00 +7°C° 0 mm 3 mps 735 mmHg 63%
    20:00 +5°C° 0 mm 3 mps 735 mmHg 66%
    21:00 +6°C° 0 mm 2 mps 735 mmHg 67%
    22:00 +6°C° 0 mm 2 mps 736 mmHg 69%
    23:00 +6°C° 0 mm 1 mps 736 mmHg 71%

    28 October, Sunday

    Time Temperature Precipitation Wind Pressure Humidity
    00:00 +6°C° 0 mm 1 mps 736 mmHg 72%
    01:00 +6°C° 0 mm 1 mps 736 mmHg 73%
    02:00 +5°C° 0 mm 0 mps 736 mmHg 74%
    03:00 +6°C° 0.3 mm 1 mps 737 mmHg 76%
    04:00 +6°C° 0.3 mm 1 mps 737 mmHg 77%
    05:00 +6°C° 0.3 mm 1 mps 737 mmHg 79%
    06:00 +6°C° 0.6 mm 1 mps 737 mmHg 80%
    07:00 +5°C° 0.6 mm 2 mps 737 mmHg 82%
    08:00 +4°C° 0.6 mm 2 mps 737 mmHg 83%
    09:00 +4°C° 0.5 mm 3 mps 737 mmHg 82%
    10:00 +4°C° 0.5 mm 3 mps 737 mmHg 81%
    11:00 +4°C° 0.5 mm 4 mps 737 mmHg 80%
    12:00 +3°C° 0.2 mm 5 mps 737 mmHg 81%
    13:00 +3°C° 0.2 mm 5 mps 736 mmHg 82%
    14:00 +3°C° 0.2 mm 6 mps 736 mmHg 83%
    15:00 +3°C° 1.2 mm 5 mps 735 mmHg 85%
    16:00 +3°C° 1.2 mm 5 mps 735 mmHg 88%
    17:00 +3°C° 1.2 mm 5 mps 735 mmHg 90%
    18:00 +3°C° 2.6 mm 6 mps 734 mmHg 91%
    19:00 +3°C° 2.6 mm 6 mps 734 mmHg 92%
    20:00 +3°C° 2.6 mm 6 mps 734 mmHg 93%
    21:00 +3°C° 2.7 mm 5 mps 734 mmHg 93%
    22:00 +3°C° 2.7 mm 5 mps 734 mmHg 94%
    23:00 +3°C° 2.7 mm 5 mps 733 mmHg 94%

    29 October, Monday

    Time Temperature Precipitation Wind Pressure Humidity
    00:00 +5°C° 0.6 mm 5 mps 733 mmHg 94%
    01:00 +5°C° 0.6 mm 4 mps 733 mmHg 95%
    02:00 +5°C° 0.6 mm 4 mps 732 mmHg 95%
    03:00 +5°C° 0.1 mm 4 mps 732 mmHg 94%
    04:00 +6°C° 0.1 mm 4 mps 732 mmHg 94%
    05:00 +6°C° 0.1 mm 4 mps 731 mmHg 93%
    06:00 +6°C° 0 mm 4 mps 731 mmHg 92%
    07:00 +6°C° 0 mm 4 mps 731 mmHg 91%
    08:00 +7°C° 0 mm 4 mps 731 mmHg 90%
    09:00 +10°C° 0 mm 4 mps 731 mmHg 83%
    10:00 +12°C° 0 mm 4 mps 731 mmHg 76%
    11:00 +14°C° 0 mm 4 mps 730 mmHg 69%
    12:00 +15°C° 0 mm 4 mps 730 mmHg 68%
    13:00 +15°C° 0 mm 4 mps 730 mmHg 66%
    14:00 +17°C° 0 mm 3 mps 730 mmHg 64%
    15:00 +16°C° 0 mm 3 mps 730 mmHg 68%
    16:00 +14°C° 0 mm 3 mps 729 mmHg 71%
    17:00 +14°C° 0 mm 3 mps 729 mmHg 75%
    18:00 +13°C° 0 mm 3 mps 729 mmHg 77%
    19:00 +13°C° 0 mm 3 mps 729 mmHg 78%
    20:00 +13°C° 0 mm 3 mps 730 mmHg 80%
    21:00 +12°C° 0 mm 3 mps 730 mmHg 82%
    22:00 +12°C° 0 mm 3 mps 730 mmHg 83%
    23:00 +12°C° 0 mm 3 mps 730 mmHg 85%
    Show more